sat.trackr.live / text

‹ back to catalog

STARLINK-35610

NORAD 66428 · 2025-259G

PAYLOAD ACTIVE UNKNOWN

§ Identity

Operator
Country
US
Launch date
2025-11-11
Launch site
AFETR
Launch vehicle
Mass (kg)
RCS (m²)

Purposes: comms

External: N2YO · Heavens-Above · Gunter

§ Orbital elements

Epoch: 2026-05-25T04:48:51.312096Z

Period
94.27 min
Inclination
43.0017°
Eccentricity
0.0000731
Mean motion
15.27592621 rev/d
Perigee alt
482.5 km
Apogee alt
483.5 km
Semi-major
6,861.1 km
B*
5.6807e-4
RAAN
202.1691°
Arg perigee
279.1884°
Mean anomaly
80.8885°
Rev number
3,119

§ Raw data

STARLINK-356101 66428U 25259G   26145.20059389  .00015409  00000+0  56807-3 0  99902 66428  43.0017 202.1691 0000731 279.1884  80.8885 15.27592621 31195

JSON: /api/v1/satellites/66428 · /tle

For live sub-satellite position, see the globe view (requires WebGL).

§ Visibility from observer

Set your observer location to see the next 7 days of passes ≥ 10°. The values pass through the URL so the page stays shareable.

No JS? Fill the form by hand. The geolocation button needs JavaScript.